When you browse on this site, cookies collect data to enhance your experience and personalize the content and advertising you see.
Visit our Privacy Policy to learn more. By continuing to use the site, you agree to this use of cookies and data.

Hourly Weather Kramskoe

Today, 11 July, Saturday

Time Temperature Precipitation Wind Pressure Humidity
00:00 +15°C° 0 mm 1 mps 750 mmHg 78%
01:00 +15°C° 0 mm 1 mps 750 mmHg 79%
02:00 +14°C° 0 mm 1 mps 750 mmHg 80%
03:00 +14°C° 0 mm 1 mps 750 mmHg 80%
04:00 +15°C° 0 mm 1 mps 750 mmHg 81%
05:00 +15°C° 0 mm 1 mps 750 mmHg 82%
06:00 +15°C° 0 mm 2 mps 751 mmHg 83%
07:00 +17°C° 0 mm 2 mps 750 mmHg 79%
08:00 +19°C° 0 mm 3 mps 750 mmHg 76%
09:00 +20°C° 0 mm 3 mps 750 mmHg 72%
10:00 +21°C° 0 mm 3 mps 750 mmHg 69%
11:00 +22°C° 0 mm 3 mps 750 mmHg 67%
12:00 +23°C° 0 mm 4 mps 751 mmHg 64%
13:00 +25°C° 0 mm 4 mps 750 mmHg 64%
14:00 +25°C° 0 mm 3 mps 750 mmHg 63%
15:00 +25°C° 0 mm 3 mps 750 mmHg 63%
16:00 +25°C° 0 mm 3 mps 750 mmHg 66%
17:00 +25°C° 0 mm 3 mps 749 mmHg 69%
18:00 +25°C° 0 mm 2 mps 749 mmHg 72%
19:00 +23°C° 0 mm 2 mps 749 mmHg 75%
20:00 +21°C° 0 mm 2 mps 749 mmHg 78%
21:00 +19°C° 0 mm 2 mps 749 mmHg 82%
22:00 +19°C° 0 mm 2 mps 749 mmHg 82%
23:00 +18°C° 0 mm 2 mps 749 mmHg 83%

Tomorrow, 12 July, Sunday

Time Temperature Precipitation Wind Pressure Humidity
00:00 +18°C° 0 mm 2 mps 749 mmHg 83%
01:00 +17°C° 0 mm 2 mps 748 mmHg 83%
02:00 +17°C° 0 mm 2 mps 748 mmHg 84%
03:00 +16°C° 0 mm 2 mps 748 mmHg 84%
04:00 +17°C° 0 mm 2 mps 748 mmHg 84%
05:00 +17°C° 0 mm 2 mps 748 mmHg 84%
06:00 +17°C° 0 mm 2 mps 748 mmHg 84%
07:00 +19°C° 0 mm 2 mps 748 mmHg 79%
08:00 +21°C° 0 mm 2 mps 748 mmHg 75%
09:00 +23°C° 0 mm 2 mps 748 mmHg 70%
10:00 +24°C° 0 mm 2 mps 747 mmHg 67%
11:00 +25°C° 0 mm 2 mps 747 mmHg 64%
12:00 +26°C° 0 mm 2 mps 747 mmHg 60%
13:00 +26°C° 0 mm 2 mps 747 mmHg 60%
14:00 +26°C° 0 mm 3 mps 746 mmHg 61%
15:00 +27°C° 0 mm 3 mps 746 mmHg 61%
16:00 +27°C° 0 mm 2 mps 746 mmHg 62%
17:00 +26°C° 0 mm 2 mps 745 mmHg 64%
18:00 +26°C° 0 mm 1 mps 745 mmHg 66%
19:00 +25°C° 0 mm 1 mps 745 mmHg 69%
20:00 +23°C° 0 mm 1 mps 745 mmHg 73%
21:00 +21°C° 0 mm 1 mps 744 mmHg 76%
22:00 +21°C° 0 mm 1 mps 744 mmHg 78%
23:00 +20°C° 0 mm 1 mps 744 mmHg 80%

Day after tomorrow, 13 July, Monday

Time Temperature Precipitation Wind Pressure Humidity
00:00 +19°C° 0 mm 1 mps 744 mmHg 82%
01:00 +19°C° 0 mm 1 mps 743 mmHg 84%
02:00 +18°C° 0 mm 2 mps 743 mmHg 85%
03:00 +17°C° 0 mm 2 mps 743 mmHg 87%
04:00 +18°C° 0 mm 2 mps 742 mmHg 87%
05:00 +18°C° 0 mm 2 mps 742 mmHg 87%
06:00 +18°C° 0 mm 2 mps 741 mmHg 88%
07:00 +20°C° 0 mm 2 mps 741 mmHg 83%
08:00 +21°C° 0 mm 2 mps 741 mmHg 79%
09:00 +24°C° 0 mm 2 mps 741 mmHg 74%
10:00 +25°C° 0 mm 2 mps 741 mmHg 71%
11:00 +26°C° 0 mm 2 mps 741 mmHg 68%
12:00 +26°C° 0 mm 2 mps 740 mmHg 65%
13:00 +27°C° 0.3 mm 2 mps 740 mmHg 68%
14:00 +27°C° 0.3 mm 2 mps 740 mmHg 70%
15:00 +27°C° 0.3 mm 2 mps 739 mmHg 72%
16:00 +26°C° 1.4 mm 2 mps 739 mmHg 77%
17:00 +25°C° 1.4 mm 3 mps 739 mmHg 82%
18:00 +24°C° 1.4 mm 3 mps 738 mmHg 87%
19:00 +23°C° 0.5 mm 2 mps 738 mmHg 89%
20:00 +21°C° 0.5 mm 2 mps 738 mmHg 90%
21:00 +21°C° 0.5 mm 1 mps 738 mmHg 92%
22:00 +21°C° 0.2 mm 1 mps 738 mmHg 93%
23:00 +21°C° 0.2 mm 1 mps 738 mmHg 94%

14 July, Tuesday

Time Temperature Precipitation Wind Pressure Humidity
00:00 +20°C° 0.2 mm 1 mps 738 mmHg 94%
01:00 +20°C° 0.1 mm 1 mps 738 mmHg 95%
02:00 +20°C° 0.1 mm 1 mps 738 mmHg 96%
03:00 +19°C° 0.1 mm 1 mps 737 mmHg 96%
04:00 +20°C° 0.1 mm 1 mps 737 mmHg 96%
05:00 +20°C° 0.1 mm 1 mps 737 mmHg 96%
06:00 +20°C° 0.1 mm 1 mps 737 mmHg 95%
07:00 +21°C° 0.1 mm 1 mps 737 mmHg 92%
08:00 +22°C° 0.1 mm 1 mps 737 mmHg 89%
09:00 +23°C° 0.1 mm 1 mps 738 mmHg 87%
10:00 +23°C° 0.8 mm 2 mps 738 mmHg 86%
11:00 +22°C° 0.8 mm 3 mps 738 mmHg 85%
12:00 +22°C° 0.8 mm 4 mps 738 mmHg 85%
13:00 +22°C° 0.6 mm 4 mps 738 mmHg 86%
14:00 +21°C° 0.6 mm 5 mps 738 mmHg 87%
15:00 +21°C° 0.6 mm 6 mps 738 mmHg 89%
16:00 +20°C° 0 mm 6 mps 738 mmHg 89%
17:00 +19°C° 0 mm 6 mps 738 mmHg 89%
18:00 +18°C° 0 mm 7 mps 738 mmHg 90%
19:00 +17°C° 0 mm 7 mps 738 mmHg 90%
20:00 +17°C° 0 mm 7 mps 738 mmHg 90%
21:00 +16°C° 0 mm 7 mps 738 mmHg 90%
22:00 +16°C° 0.5 mm 6 mps 738 mmHg 91%
23:00 +16°C° 0.5 mm 6 mps 738 mmHg 93%

15 July, Wednesday

Time Temperature Precipitation Wind Pressure Humidity
00:00 +15°C° 0.5 mm 6 mps 738 mmHg 95%
01:00 +15°C° 1.4 mm 6 mps 738 mmHg 95%
02:00 +15°C° 1.4 mm 5 mps 737 mmHg 96%
03:00 +15°C° 1.4 mm 5 mps 737 mmHg 96%
04:00 +15°C° 2.3 mm 6 mps 737 mmHg 96%
05:00 +15°C° 2.3 mm 6 mps 737 mmHg 96%
06:00 +15°C° 2.3 mm 7 mps 737 mmHg 96%
07:00 +14°C° 2.8 mm 7 mps 737 mmHg 96%
08:00 +14°C° 2.8 mm 7 mps 737 mmHg 96%
09:00 +13°C° 2.8 mm 8 mps 737 mmHg 96%
10:00 +13°C° 2.2 mm 8 mps 737 mmHg 95%
11:00 +14°C° 2.2 mm 7 mps 737 mmHg 95%
12:00 +14°C° 2.2 mm 7 mps 738 mmHg 95%
13:00 +13°C° 1.2 mm 8 mps 738 mmHg 95%
14:00 +13°C° 1.2 mm 8 mps 738 mmHg 94%
15:00 +12°C° 1.2 mm 9 mps 738 mmHg 93%
16:00 +12°C° 0.4 mm 9 mps 739 mmHg 93%
17:00 +12°C° 0.4 mm 9 mps 739 mmHg 93%
18:00 +12°C° 0.4 mm 9 mps 739 mmHg 93%
19:00 +11°C° 0.1 mm 9 mps 739 mmHg 92%
20:00 +11°C° 0.1 mm 8 mps 739 mmHg 91%
21:00 +11°C° 0.1 mm 8 mps 739 mmHg 90%
22:00 +11°C° 0 mm 8 mps 739 mmHg 89%
23:00 +11°C° 0 mm 7 mps 739 mmHg 88%

16 July, Thursday

Time Temperature Precipitation Wind Pressure Humidity
00:00 +11°C° 0 mm 7 mps 739 mmHg 87%
01:00 +11°C° 0 mm 7 mps 739 mmHg 87%
02:00 +11°C° 0 mm 7 mps 739 mmHg 87%
03:00 +11°C° 0 mm 7 mps 739 mmHg 86%
04:00 +11°C° 0.1 mm 6 mps 739 mmHg 87%
05:00 +11°C° 0.1 mm 6 mps 739 mmHg 88%
06:00 +12°C° 0.1 mm 5 mps 739 mmHg 89%
07:00 +12°C° 0 mm 5 mps 739 mmHg 88%
08:00 +13°C° 0 mm 5 mps 739 mmHg 87%
09:00 +14°C° 0 mm 5 mps 739 mmHg 86%
10:00 +15°C° 0 mm 5 mps 740 mmHg 83%
11:00 +16°C° 0 mm 5 mps 740 mmHg 81%
12:00 +17°C° 0 mm 5 mps 740 mmHg 78%
13:00 +17°C° 0.1 mm 5 mps 740 mmHg 77%
14:00 +19°C° 0.1 mm 4 mps 740 mmHg 77%
15:00 +19°C° 0.1 mm 4 mps 740 mmHg 76%
16:00 +19°C° 0.1 mm 4 mps 740 mmHg 79%
17:00 +18°C° 0.1 mm 3 mps 740 mmHg 82%
18:00 +18°C° 0.1 mm 2 mps 740 mmHg 85%
19:00 +17°C° 0 mm 2 mps 740 mmHg 86%
20:00 +16°C° 0 mm 2 mps 740 mmHg 88%
21:00 +15°C° 0 mm 1 mps 740 mmHg 89%
22:00 +15°C° 0 mm 2 mps 740 mmHg 89%
23:00 +14°C° 0 mm 2 mps 740 mmHg 89%
Show more